Wetbulb
29.41 29.76 30.84 32.41 33.31 33.10 32.84 33.25 35.08 35.13 33.79 31.39 30.80 30.53 30.46 30.44 30.75 31.41 32.06 31.91 32.18 32.18 31.89 31.66 31.61 30.54 29.22 28.44 28.40 28.30 28.12 27.73 28.18 29.93 31.06 29.50 27.98 27.24 26.88 26.83 27.08 27.48 27.67 27.58 27.58 28.07 28.63 28.72 30.72 32.76 33.94 33.55 32.00 30.96 30.42 30.13 29.30 29.35 29.91 30.59 30.96 30.12 29.08 28.93 29.08 29.15 29.22 29.22 30.07
29.75 30.13 31.21 33.81 34.31 33.55 32.79 32.87 33.55 33.64 33.06 31.94 31.35 30.46 30.15 30.87 31.20 31.19 30.91 30.46 31.64 31.71 31.52 31.96 30.81 28.95 27.58 28.18 28.72 28.40 27.73 27.31 27.55 28.20 28.70 28.12 27.39 26.88 26.56 26.64 27.06 27.53 27.72 27.11 27.04 27.91 28.48 27.91 29.54 31.77 33.28 32.72 31.19 30.63 30.40 29.95 29.29 29.17 29.20 29.08 30.13 30.37 30.28 30.30 29.45 29.16 29.19 29.55 29.30
27.91 28.30 29.17 29.90 30.09 30.49 30.98 31.37 30.53 29.38 28.75 29.40 30.04 30.26 30.36 30.91 31.52 31.64 31.35 30.60 29.79 29.74 30.31 31.23 29.86 28.60 27.73 27.30 27.24 27.13 27.09 26.98 27.10 27.17 27.18 27.30 27.26 27.01 26.64 26.37 26.72 27.63 28.08 27.11 26.55 26.85 27.28 26.83 29.59 31.98 33.19 32.07 30.00 29.73 29.97 29.57 29.57 29.39 29.05 28.87 30.18 31.05 31.80 32.67 30.35 29.72 30.08 30.64 29.07
25.82 26.04 26.54 27.08 27.18 27.18 27.66 29.18 27.95 27.08 27.28 29.16 27.83 28.27 29.34 30.13 30.81 30.72 29.90 28.28 28.46 28.95 29.34 29.07 27.88 27.49 27.49 27.37 26.70 26.38 26.95 29.07 28.75 27.66 26.68 26.59 26.77 26.92 26.91 26.50 26.50 26.44 26.24 26.17 25.99 25.72 25.65 25.95 29.38 31.17 30.94 28.35 28.04 28.58 29.28 29.74 28.78 28.90 29.38 29.56 30.39 30.69 31.12 32.16 30.99 31.16 31.50 30.72 28.91
25.02 25.11 25.43 25.88 25.72 25.36 25.16 25.24 25.25 25.38 25.95 27.60 27.42 27.51 27.87 28.36 28.93 28.18 27.61 28.41 28.69 28.77 28.28 27.18 25.80 25.74 26.41 27.40 26.04 25.42 25.95 28.34 30.42 28.49 25.83 25.70 25.92 26.49 27.16 27.42 26.75 26.37 26.17 25.99 25.79 25.77 25.79 25.65 29.17 30.08 29.29 27.88 29.17 28.73 27.63 26.76 26.85 27.30 28.36 30.30 30.84 30.96 30.94 30.91 31.16 31.07 30.93 30.76 29.04
25.70 25.38 24.93 24.71 24.46 24.20 23.99 23.81 23.79 23.97 24.61 25.74 25.51 25.56 26.09 27.65 27.64 27.43 27.27 27.37 27.01 26.54 26.92 28.55 28.09 28.25 28.12 26.65 25.11 24.57 24.71 25.07 26.17 25.77 24.96 24.87 25.38 26.13 26.70 26.75 26.09 26.09 26.15 25.81 25.52 25.43 25.36 25.11 28.93 29.80 29.32 29.11 27.65 26.43 25.91 26.37 26.85 26.94 27.17 28.53 29.76 30.15 29.83 29.23 30.08 30.46 30.08 28.98 27.69
26.08 26.17 26.01 25.60 24.75 24.26 23.99 23.90 23.81 23.59 23.63 24.34 24.29 24.58 24.89 25.32 25.18 24.87 24.73 25.11 25.28 25.82 27.36 30.75 29.23 27.64 26.19 25.16 24.80 24.66 24.71 24.98 25.70 25.43 24.86 24.60 24.98 25.81 26.46 26.09 27.10 28.51 28.99 27.61 25.88 25.07 24.96 24.75 28.27 30.17 31.07 31.85 30.28 27.55 25.59 26.15 26.73 26.73 26.68 27.00 28.91 29.31 28.81 27.40 28.94 29.88 30.24 29.91 29.01
25.77 26.50 26.95 27.17 26.13 25.11 24.53 24.92 24.74 24.31 24.44 25.64 24.57 24.18 24.32 24.32 24.37 24.19 24.09 24.06 24.71 25.60 26.91 28.61 25.96 24.44 23.84 24.02 24.73 25.09 25.27 25.36 26.33 27.68 28.12 26.02 25.48 25.50 25.72 26.10 27.89 30.41 31.95 31.02 28.50 26.19 25.02 25.93 29.02 29.54 29.29 30.01 30.31 28.66 26.73 26.10 26.71 26.44 25.99 26.03 28.03 28.33 27.79 27.15 28.22 29.35 30.55 32.01 33.43
25.83 26.50 27.18 27.67 27.67 26.93 26.26 26.28 25.92 25.61 25.09 24.51 24.00 23.88 24.10 24.32 24.14 24.05 24.10 24.53 26.26 26.55 25.91 25.16 24.16 23.79 23.86 24.18 24.36 24.46 25.11 26.68 27.33 29.29 31.03 30.92 28.64 27.58 27.81 28.84 30.68 31.54 31.79 32.31 30.46 27.56 25.54 26.61 28.32 28.79 29.11 30.81 30.40 29.53 28.56 27.99 28.34 27.36 26.53 27.15 27.85 27.94 27.94 28.27 29.64 29.95 30.46 31.97 34.46
26.24 26.55 26.84 27.33 28.16 28.61 28.70 28.61 28.83 27.95 26.36 24.50 24.19 24.10 25.07 28.16 27.07 25.50 24.69 26.08 27.20 26.06 24.16 23.14 23.12 23.41 23.86 24.10 23.91 23.97 25.34 28.95 31.13 31.63 31.31 30.85 31.14 30.95 30.79 31.00 32.43 32.89 32.88 32.77 31.93 29.89 28.00 27.60 27.82 27.60 27.95 29.41 29.46 29.69 29.99 30.19 30.37 29.71 29.13 29.38 29.26 28.98 29.12 30.18 30.37 30.58 31.14 32.29 33.99
26.77 27.00 27.29 27.56 28.40 29.40 30.12 29.96 30.70 29.81 27.80 25.17 24.59 24.19 24.85 27.45 26.75 26.17 26.01 26.59 25.20 23.99 22.90 22.34 22.61 23.25 24.00 24.45 24.80 25.24 26.55 29.40 31.07 31.36 30.68 29.32 30.26 30.70 31.01 31.70 32.61 32.96 33.00 33.07 32.85 32.16 31.35 30.69 29.88 30.12 30.66 30.92 31.15 31.13 31.08 31.32 31.54 31.23 30.59 30.09 29.80 29.61 29.79 30.63 30.64 30.94 31.52 32.46 34.45
26.72 27.19 27.68 28.12 28.92 29.37 29.73 30.22 30.14 29.29 27.86 25.92 25.07 24.45 24.10 24.10 24.19 25.34 26.03 25.01 23.93 23.48 23.01 22.13 22.53 23.33 24.29 25.15 26.18 27.67 28.68 28.55 29.10 30.19 30.89 30.48 30.65 30.79 31.03 31.71 32.16 32.69 33.07 33.31 33.11 32.76 32.16 31.49 31.17 30.68 30.58 31.70 31.91 31.34 30.95 31.65 31.75 31.20 30.26 28.83 29.14 28.95 29.08 30.54 31.11 31.32 31.94 33.76 35.41
26.28 26.76 27.32 27.94 28.68 28.95 29.22 29.85 28.90 28.32 27.60 26.26 25.27 24.73 24.40 24.05 24.57 25.30 25.27 23.63 24.25 23.79 23.06 22.56 23.57 23.79 23.79 24.20 26.09 27.53 28.50 28.89 29.22 30.06 30.78 30.69 31.29 31.13 30.75 30.71 31.37 32.15 32.94 33.47 33.50 32.96 32.34 31.64 31.24 30.87 30.73 31.36 31.57 31.25 31.10 31.54 30.85 29.98 28.87 27.81 28.01 28.05 28.27 28.81 30.06 31.17 32.34 34.10 34.78
25.82 26.27 26.74 26.86 27.60 28.46 28.99 28.99 29.08 28.83 27.94 25.81 24.67 24.36 24.22 23.95 24.89 25.27 24.75 23.14 23.57 23.19 22.62 22.74 24.61 25.30 25.28 25.20 26.15 26.89 27.55 28.58 29.55 30.24 30.68 30.91 31.27 30.93 30.56 30.48 31.17 31.91 32.61 33.34 33.48 32.96 32.32 31.84 31.47 31.31 31.23 31.13 31.14 31.49 31.68 31.52 31.34 30.46 29.10 27.53 27.06 27.27 27.61 27.61 29.52 30.94 32.30 34.46 34.37
25.67 25.98 26.16 26.11 27.00 28.05 28.55 28.03 29.25 29.71 29.10 26.91 24.86 23.92 23.65 23.47 24.64 25.16 24.70 22.85 22.58 22.13 21.91 22.36 23.89 25.66 27.06 27.36 27.04 27.19 27.77 28.89 29.85 30.31 30.50 30.71 30.82 30.75 30.79 31.11 31.27 31.67 32.02 32.53 32.85 32.76 32.38 31.93 31.54 31.32 31.02 30.93 30.89 31.07 31.24 31.30 31.57 30.90 29.60 27.72 26.72 27.01 27.65 27.65 29.08 30.62 32.46 34.83 34.43
25.76 25.89 25.82 25.82 26.61 27.41 27.86 27.55 28.61 29.64 29.80 28.46 25.62 24.05 23.29 22.94 23.29 24.31 24.61 23.18 22.16 21.64 21.67 22.30 23.07 24.13 25.70 28.12 28.03 27.89 28.24 29.40 29.74 30.25 30.46 30.28 30.22 30.44 30.80 31.04 30.82 31.07 31.51 31.73 32.15 32.24 32.20 31.98 31.71 31.45 31.13 30.91 30.83 30.67 30.76 30.95 31.06 30.67 29.58 27.51 26.54 26.50 27.16 28.05 29.17 31.36 33.62 35.08 34.54
25.94 26.11 26.00 25.79 26.51 26.86 26.91 26.88 27.67 29.01 29.73 28.67 26.09 24.32 23.16 22.62 22.29 23.84 25.44 25.29 23.07 22.30 22.38 22.83 23.16 23.61 24.62 26.64 27.80 28.05 28.65 30.37 29.79 29.82 30.19 30.35 30.41 30.59 30.86 31.05 31.02 31.13 31.31 31.35 31.49 31.67 31.69 31.81 31.71 31.53 31.29 31.08 30.91 30.74 30.69 30.91 29.67 28.92 28.10 26.28 26.43 26.73 27.64 29.25 31.07 32.98 34.58 35.44 34.47
26.11 26.36 26.46 26.28 26.71 26.71 26.44 26.10 26.38 27.57 28.94 29.98 26.58 24.21 22.74 22.20 21.98 23.39 25.75 28.32 25.42 23.99 23.61 24.66 24.91 25.14 25.25 25.56 26.43 27.55 28.79 30.15 29.81 29.80 30.03 30.50 30.82 31.00 30.98 31.07 31.18 31.32 31.27 31.20 31.15 31.24 31.35 31.44 31.40 31.27 31.19 31.24 31.26 31.07 30.71 29.79 27.27 26.37 26.27 25.98 26.37 26.98 28.05 29.97 32.45 34.13 35.15 35.53 34.25
26.16 26.36 26.72 26.77 26.89 26.80 26.62 26.73 26.45 26.61 27.26 28.65 26.81 25.40 23.97 22.34 22.04 22.83 25.06 28.75 28.72 27.84 27.36 28.39 29.00 29.03 28.68 28.55 28.43 28.78 29.55 30.49 30.09 29.98 30.02 30.47 30.65 30.78 30.82 30.91 31.09 31.15 31.13 30.98 30.98 31.08 31.18 31.40 31.18 30.98 30.97 31.26 31.37 31.35 30.65 28.47 26.30 25.64 25.71 25.89 26.28 27.02 28.37 30.69 33.34 34.80 35.13 34.88 33.22
26.74 26.88 27.12 27.43 27.18 26.86 26.69 26.91 26.67 26.65 26.88 27.67 27.84 27.66 27.01 25.70 25.94 26.50 27.53 29.32 30.79 30.68 30.23 30.31 30.38 30.31 30.16 30.00 29.84 29.39 29.32 30.24 30.33 30.20 30.16 30.38 30.41 30.41 30.53 30.66 30.59 30.69 30.68 30.68 30.68 30.86 31.08 31.17 31.09 30.95 30.84 30.95 31.04 30.89 29.86 27.72 26.28 25.64 25.66 25.96 27.13 28.24 29.59 31.77 33.99 34.74 34.43 33.67 32.31
27.68 27.48 27.48 27.57 27.09 26.69 26.33 26.24 26.27 26.45 26.81 27.73 28.07 28.81 29.39 29.32 29.45 29.78 30.19 30.86 31.49 30.68 29.66 29.39 29.53 29.58 29.42 29.08 28.97 28.75 28.82 29.25 29.97 30.24 30.24 30.42 30.40 30.47 30.56 30.65 30.56 30.47 30.49 30.49 30.58 30.68 30.86 30.95 30.92 30.87 30.74 30.76 30.82 30.16 28.98 27.27 26.15 25.60 25.75 26.82 29.34 30.69 31.64 33.25 34.18 33.59 32.67 32.24 32.55
28.25 27.79 27.26 26.90 26.54 26.28 26.02 25.75 25.87 26.09 26.61 27.39 27.76 28.91 30.04 30.13 30.19 30.38 30.64 31.16 31.03 30.22 29.02 27.45 28.48 28.86 28.75 28.08 27.92 28.08 28.32 28.77 29.66 30.16 30.38 30.42 30.53 30.73 30.91 31.09 30.82 30.65 30.56 30.56 30.53 30.55 30.74 30.92 30.89 30.85 30.80 30.77 29.77 29.47 29.01 27.45 26.24 25.86 26.47 28.08 30.22 31.94 33.25 34.70 34.04 32.79 32.13 33.21 33.55
27.92 26.84 26.02 25.60 25.34 26.09 26.79 26.09 25.60 25.78 26.29 26.72 27.36 28.14 29.00 29.98 30.04 30.16 30.31 30.31 30.29 29.60 28.68 28.26 28.35 28.17 28.01 27.97 27.88 27.78 27.98 28.47 29.25 29.82 30.24 30.28 30.49 30.68 30.92 31.02 30.86 30.71 30.57 30.66 30.65 30.53 30.35 30.06 30.16 30.47 30.86 31.04 29.94 29.07 28.46 28.08 27.44 27.55 28.44 30.22 31.03 32.24 33.69 34.99 34.00 33.24 32.83 32.92 33.42
27.50 26.36 25.75 25.98 24.80 24.80 25.20 25.02 24.80 25.15 25.65 26.19 26.51 27.07 27.96 29.07 29.68 29.91 29.79 29.68 29.58 29.22 28.94 28.90 28.75 28.60 28.51 28.64 28.64 28.21 27.84 28.11 28.63 29.06 29.54 30.07 30.28 30.46 30.51 30.56 30.41 30.31 30.28 30.58 30.84 30.81 30.32 29.30 28.70 29.23 30.31 30.92 31.04 29.15 27.40 27.44 27.55 27.99 29.07 30.99 31.39 32.47 33.57 34.41 32.41 31.33 31.18 32.11 32.92
27.43 26.49 26.02 25.82 24.93 24.44 24.26 24.44 24.86 25.31 25.65 25.84 25.90 26.17 26.91 27.85 29.13 29.49 29.30 29.03 29.03 28.91 28.86 28.70 28.68 28.69 28.74 28.86 28.90 28.68 28.34 28.25 28.42 28.57 28.77 29.36 29.84 30.10 30.17 29.93 29.94 30.03 30.29 30.69 31.75 32.35 32.44 31.93 30.58 30.06 30.01 29.82 29.69 28.72 27.56 27.13 27.44 28.36 29.71 31.19 31.91 32.49 32.64 32.41 30.70 30.14 30.83 32.80 32.76
27.08 26.44 26.24 26.45 25.69 25.15 24.95 24.99 25.26 25.33 25.30 24.92 25.24 25.55 26.10 26.69 28.29 28.58 28.27 28.03 28.45 28.64 28.61 28.46 28.46 28.68 28.87 28.93 28.97 28.93 28.79 28.61 28.57 28.53 28.53 28.64 29.08 29.36 29.47 29.44 29.71 29.93 30.36 31.12 32.14 33.01 33.75 34.36 34.13 33.29 31.96 30.37 28.90 27.96 27.51 27.51 28.05 28.99 30.20 31.34 32.57 32.80 32.20 30.58 29.33 29.53 30.74 32.67 32.92
26.89 26.62 26.64 26.67 26.32 25.98 25.76 25.71 25.62 25.33 25.11 25.01 25.46 25.88 26.24 26.64 27.48 27.66 27.67 28.21 28.18 28.33 28.46 28.39 28.35 28.76 29.26 29.08 29.00 28.82 28.61 28.58 28.53 28.32 28.24 28.37 28.55 28.58 28.69 28.71 29.02 29.49 30.28 31.65 32.57 33.47 34.27 35.08 35.62 35.66 34.75 32.60 30.34 28.86 28.05 28.05 28.61 29.47 30.55 31.75 32.58 32.55 31.54 29.73 28.62 28.88 30.32 32.38 32.65
27.30 27.02 26.57 26.09 26.16 26.29 26.29 25.94 25.62 25.49 25.49 25.69 26.02 26.33 26.55 26.72 26.76 26.99 27.34 27.76 27.74 27.96 28.19 28.26 28.42 28.70 28.79 28.61 28.51 28.55 28.63 28.68 28.63 28.47 28.17 27.85 27.88 27.68 27.56 28.13 28.52 29.29 30.42 32.02 32.94 33.84 34.58 35.22 35.94 36.52 36.50 35.47 32.60 30.81 29.78 29.27 29.58 30.26 31.20 32.42 32.90 32.23 30.97 29.80 29.91 30.24 30.91 31.91 31.44
26.92 26.59 26.13 25.75 26.00 26.14 26.09 25.85 25.85 25.89 25.82 25.57 25.88 26.24 26.58 26.88 26.79 26.88 27.12 27.40 27.53 27.57 27.71 27.89 28.32 28.39 28.12 27.90 27.99 28.25 28.28 28.26 27.88 27.79 27.81 27.75 27.61 27.47 27.46 27.77 27.89 28.82 30.37 32.49 33.45 34.24 34.84 35.40 36.04 36.69 37.20 37.47 34.74 32.69 31.37 30.86 31.22 31.83 32.47 32.94 32.79 32.04 31.24 30.98 30.84 30.62 30.68 31.81 31.24
26.34 26.10 25.96 25.95 26.02 26.02 26.00 26.00 26.14 26.02 25.79 25.52 25.39 25.65 26.11 26.46 26.64 26.96 27.46 27.90 27.91 27.75 27.63 27.81 27.82 27.68 27.46 27.41 27.61 27.61 27.61 27.42 27.34 27.34 27.48 27.45 27.23 27.11 27.20 27.27 26.89 28.10 30.21 32.75 33.76 34.51 35.17 35.77 36.15 36.65 37.23 37.89 36.75 34.97 33.39 32.65 32.72 32.91 33.09 33.13 32.70 32.01 31.45 30.99 29.90 29.74 30.15 30.69 31.26
26.03 25.92 25.96 25.92 25.95 25.95 25.99 25.99 25.82 25.46 25.06 24.93 24.75 24.97 25.53 26.10 26.46 27.05 27.70 28.18 27.75 27.79 27.99 28.08 27.68 27.34 27.19 27.09 27.09 27.06 27.06 27.00 26.99 26.99 27.01 26.99 27.30 27.26 26.99 26.57 26.10 27.62 30.24 32.98 33.99 34.86 35.48 36.04 36.34 36.79 37.16 37.66 37.66 36.44 34.99 34.09 33.70 33.50 33.32 32.82 32.12 31.64 31.09 30.07 30.59 31.06 31.28 31.50 31.20
25.90 25.72 25.78 25.96 26.01 26.14 26.03 25.65 25.07 24.61 24.12 23.78 24.08 24.57 25.22 25.76 26.32 26.77 27.15 27.43 27.46 27.65 27.80 27.72 27.42 27.19 26.98 26.76 26.75 26.71 26.68 26.69 26.67 26.72 26.76 26.73 26.73 26.52 26.17 26.14 25.61 27.26 30.08 33.05 34.17 35.12 35.73 36.22 36.48 36.84 37.25 37.61 37.75 36.80 35.50 34.59 34.00 33.68 33.26 32.58 31.84 31.48 31.16 30.49 29.98 30.22 30.59 30.46 30.16
25.92 25.72 25.87 26.14 26.30 26.30 25.88 25.18 24.44 23.99 23.72 23.83 24.13 24.57 25.11 25.60 26.02 26.04 26.04 26.35 27.34 27.66 27.45 27.19 27.01 26.86 26.66 26.45 26.25 26.21 26.16 26.26 26.40 26.72 27.03 27.11 26.91 26.54 26.24 26.58 26.05 27.88 30.73 33.25 34.43 35.23 35.84 36.27 36.57 36.86 37.22 37.47 37.46 36.69 35.51 34.43 33.94 33.29 32.58 31.57 31.46 30.98 30.16 28.75 28.86 29.08 29.27 29.32 29.57
26.01 25.92 26.01 26.30 26.74 26.61 26.01 25.00 24.22 23.81 23.74 23.90 24.35 24.80 25.17 25.43 25.59 25.90 26.40 27.34 27.97 27.81 27.26 26.72 26.58 26.40 26.13 25.83 25.88 25.84 25.91 26.50 26.28 26.12 26.01 26.23 26.46 26.45 26.43 26.56 26.55 28.78 31.65 33.58 34.66 35.38 35.91 36.20 36.51 36.79 37.03 37.36 36.94 36.11 35.02 33.98 33.44 32.80 31.98 30.85 30.01 29.71 29.67 29.37 29.03 29.04 29.08 29.14 29.74
26.44 26.32 26.36 26.59 26.74 26.56 26.03 25.05 24.40 24.03 24.00 24.21 24.66 24.99 25.24 25.37 25.55 25.99 26.85 28.20 28.65 28.20 27.31 26.40 25.81 25.63 25.50 25.36 25.45 25.58 25.72 26.13 25.73 25.28 25.08 25.08 25.24 25.74 26.10 26.16 26.34 28.90 31.98 33.80 34.68 35.30 35.70 36.14 36.47 36.76 36.91 36.95 36.12 35.09 34.02 32.97 32.67 32.39 31.80 31.21 29.64 28.49 28.14 28.57 28.35 28.72 29.29 29.76 30.60
27.02 26.93 26.93 27.03 26.79 26.48 25.85 25.18 24.62 24.43 24.54 24.85 25.21 25.37 25.55 25.56 25.74 26.10 26.79 28.25 28.71 28.30 27.40 26.63 26.30 26.15 26.07 25.98 25.88 26.07 26.18 25.73 25.15 24.79 24.67 24.75 24.59 24.55 24.73 24.97 25.32 28.12 31.48 33.76 34.55 35.09 35.61 36.00 36.41 36.70 36.61 36.11 34.37 32.69 31.47 30.90 31.40 31.52 31.26 30.68 29.41 28.01 27.14 27.39 27.76 28.44 29.36 30.37 31.46
27.53 27.47 27.51 27.43 27.26 26.79 26.25 25.63 25.20 25.06 25.15 25.55 25.87 26.01 25.94 25.81 25.67 25.58 26.03 27.59 27.83 27.75 27.34 26.99 26.54 26.23 26.01 25.74 25.63 25.63 25.56 25.32 25.01 24.76 24.85 25.42 25.04 24.55 24.26 24.72 24.34 26.45 29.88 33.01 34.24 34.91 35.41 35.89 36.27 36.43 36.07 34.70 31.65 29.40 28.39 28.76 29.97 30.53 30.33 29.29 28.77 27.61 26.61 26.81 27.14 28.07 29.30 30.44 31.81
28.03 27.82 27.91 27.82 27.70 27.43 26.97 26.39 26.10 25.92 26.01 26.25 26.39 26.41 26.28 26.01 25.72 25.41 25.87 27.91 27.53 27.24 27.05 26.94 26.45 26.03 25.45 24.98 24.98 24.85 24.76 24.67 25.21 25.08 24.89 24.99 25.08 24.90 24.65 24.62 23.91 25.30 28.03 31.79 33.50 34.58 35.22 35.67 36.01 36.16 35.67 33.92 30.49 28.36 27.50 27.58 28.11 28.82 29.43 29.77 28.82 28.00 27.37 27.22 27.22 28.01 29.08 30.13 32.09
28.52 28.43 28.23 28.23 28.14 27.88 27.52 27.12 26.92 26.92 26.92 26.94 26.90 26.68 26.45 26.10 26.18 26.01 26.30 27.82 27.09 26.86 26.71 26.54 25.96 25.47 25.05 25.05 25.24 25.01 24.61 24.18 24.92 25.43 25.39 24.70 24.96 25.65 26.05 25.30 24.28 25.01 27.20 30.96 32.89 34.14 34.94 35.46 35.77 35.93 35.54 34.16 30.70 28.91 28.05 27.13 26.88 27.50 28.39 28.96 27.03 26.30 26.48 27.23 27.07 27.52 28.64 30.25 32.18
28.74 28.65 28.56 28.45 28.45 28.24 28.01 27.70 27.72 27.80 27.88 27.70 27.33 27.04 26.68 26.32 26.86 27.09 27.27 27.70 26.84 26.49 26.42 26.19 25.47 25.18 25.52 26.49 26.06 25.30 24.63 24.18 24.09 24.67 25.29 25.47 25.80 27.30 28.30 27.02 25.19 25.07 26.80 30.45 32.58 33.84 34.59 35.07 35.40 35.61 35.26 33.88 30.27 29.20 29.09 27.82 27.29 27.61 28.12 28.14 26.32 25.45 25.47 26.42 26.85 27.34 28.12 29.84 31.66
28.34 28.47 28.70 28.88 28.81 28.64 28.46 28.17 28.24 28.41 28.53 28.38 28.03 27.86 27.68 27.33 27.18 27.36 27.52 27.26 26.66 26.40 26.33 26.27 25.59 25.20 25.47 26.77 26.36 25.47 24.63 24.21 23.89 23.87 24.42 25.62 26.13 27.65 28.82 27.99 26.04 24.94 25.52 28.54 31.69 33.49 34.39 34.87 35.19 35.48 35.19 33.99 29.84 29.08 29.64 29.21 28.30 27.81 27.62 27.60 26.92 26.27 25.73 25.50 26.78 27.39 28.00 28.86 30.16
MSLP
1023.54 1023.56 1023.54 1023.54 1023.54 1023.54 1023.50 1023.50 1023.44 1023.44 1023.44 1023.46 1023.50 1023.54 1023.54 1023.54 1023.60 1023.60 1023.56 1023.56 1023.60 1023.62 1023.60 1023.60 1023.60 1023.62 1023.66 1023.62 1023.60 1023.56 1023.54 1023.50 1023.50 1023.46 1023.40 1023.38 1023.38 1023.34 1023.32 1023.28 1023.22 1023.18 1023.16 1023.12 1023.06 1023.00 1022.96 1022.90 1022.84 1022.74 1022.68 1022.72 1022.72 1022.74 1022.78 1022.78 1022.72 1022.68 1022.62 1022.60 1022.62 1022.66 1022.66 1022.66 1022.66 1022.66 1022.62 1022.62 1022.62
1023.54 1023.54 1023.54 1023.50 1023.50 1023.54 1023.54 1023.54 1023.50 1023.46 1023.46 1023.50 1023.50 1023.54 1023.54 1023.54 1023.54 1023.56 1023.56 1023.60 1023.56 1023.56 1023.56 1023.56 1023.60 1023.62 1023.62 1023.60 1023.56 1023.54 1023.50 1023.54 1023.54 1023.46 1023.44 1023.40 1023.38 1023.38 1023.34 1023.28 1023.26 1023.18 1023.16 1023.12 1023.10 1023.04 1023.00 1022.96 1022.88 1022.78 1022.74 1022.74 1022.78 1022.82 1022.82 1022.78 1022.78 1022.74 1022.72 1022.74 1022.72 1022.72 1022.72 1022.72 1022.74 1022.74 1022.72 1022.72 1022.68
1023.56 1023.56 1023.56 1023.56 1023.56 1023.56 1023.56 1023.56 1023.56 1023.56 1023.60 1023.56 1023.56 1023.56 1023.54 1023.54 1023.54 1023.56 1023.56 1023.60 1023.60 1023.60 1023.60 1023.56 1023.62 1023.62 1023.60 1023.54 1023.54 1023.54 1023.50 1023.54 1023.54 1023.50 1023.46 1023.40 1023.38 1023.38 1023.34 1023.32 1023.28 1023.22 1023.16 1023.16 1023.12 1023.10 1023.06 1023.00 1022.90 1022.82 1022.78 1022.82 1022.84 1022.88 1022.88 1022.88 1022.82 1022.82 1022.82 1022.84 1022.82 1022.74 1022.74 1022.74 1022.82 1022.78 1022.74 1022.74 1022.78
1023.60 1023.60 1023.60 1023.60 1023.60 1023.62 1023.62 1023.60 1023.62 1023.62 1023.62 1023.60 1023.60 1023.60 1023.60 1023.56 1023.56 1023.60 1023.60 1023.62 1023.62 1023.62 1023.60 1023.56 1023.60 1023.60 1023.56 1023.56 1023.54 1023.54 1023.54 1023.46 1023.46 1023.50 1023.50 1023.44 1023.40 1023.40 1023.38 1023.32 1023.28 1023.26 1023.22 1023.18 1023.16 1023.12 1023.10 1023.04 1022.94 1022.88 1022.84 1022.90 1022.96 1022.96 1022.96 1022.90 1022.88 1022.88 1022.88 1022.88 1022.84 1022.84 1022.84 1022.82 1022.84 1022.82 1022.78 1022.78 1022.82
1023.56 1023.56 1023.56 1023.56 1023.56 1023.60 1023.60 1023.62 1023.66 1023.66 1023.62 1023.60 1023.60 1023.60 1023.60 1023.60 1023.60 1023.62 1023.62 1023.62 1023.62 1023.56 1023.54 1023.56 1023.60 1023.60 1023.60 1023.56 1023.56 1023.56 1023.54 1023.46 1023.44 1023.46 1023.50 1023.50 1023.44 1023.40 1023.38 1023.34 1023.32 1023.28 1023.26 1023.22 1023.18 1023.16 1023.12 1023.10 1022.96 1022.94 1022.94 1022.96 1022.96 1023.00 1023.04 1022.96 1022.94 1022.94 1022.90 1022.84 1022.84 1022.84 1022.84 1022.84 1022.84 1022.84 1022.84 1022.82 1022.82
1023.54 1023.54 1023.54 1023.54 1023.56 1023.56 1023.60 1023.62 1023.62 1023.62 1023.62 1023.62 1023.62 1023.62 1023.62 1023.60 1023.60 1023.62 1023.66 1023.62 1023.60 1023.56 1023.56 1023.54 1023.56 1023.56 1023.56 1023.56 1023.56 1023.56 1023.56 1023.54 1023.50 1023.54 1023.56 1023.54 1023.46 1023.44 1023.40 1023.38 1023.34 1023.32 1023.28 1023.26 1023.26 1023.22 1023.18 1023.16 1023.04 1023.00 1023.00 1022.96 1023.00 1023.04 1023.06 1023.00 1022.96 1022.96 1022.94 1022.90 1022.88 1022.88 1022.88 1022.84 1022.82 1022.82 1022.82 1022.84 1022.84
1023.44 1023.44 1023.44 1023.46 1023.50 1023.54 1023.54 1023.56 1023.60 1023.62 1023.62 1023.62 1023.66 1023.66 1023.66 1023.62 1023.62 1023.66 1023.66 1023.62 1023.60 1023.60 1023.56 1023.50 1023.56 1023.60 1023.60 1023.60 1023.60 1023.60 1023.60 1023.56 1023.54 1023.56 1023.56 1023.54 1023.54 1023.46 1023.40 1023.38 1023.34 1023.28 1023.26 1023.28 1023.32 1023.28 1023.26 1023.18 1023.10 1023.04 1023.00 1022.94 1022.96 1023.00 1023.04 1022.96 1022.94 1022.96 1022.96 1022.96 1022.90 1022.88 1022.84 1022.82 1022.78 1022.78 1022.78 1022.78 1022.82
1023.38 1023.38 1023.38 1023.38 1023.38 1023.44 1023.50 1023.54 1023.54 1023.56 1023.60 1023.60 1023.62 1023.62 1023.62 1023.62 1023.62 1023.62 1023.60 1023.62 1023.60 1023.56 1023.54 1023.50 1023.56 1023.60 1023.60 1023.56 1023.56 1023.56 1023.56 1023.56 1023.54 1023.50 1023.50 1023.56 1023.56 1023.50 1023.44 1023.38 1023.32 1023.22 1023.18 1023.26 1023.32 1023.32 1023.28 1023.18 1023.12 1023.10 1023.06 1023.04 1023.00 1022.96 1022.96 1022.96 1022.96 1023.00 1023.00 1023.00 1022.90 1022.88 1022.84 1022.78 1022.74 1022.74 1022.74 1022.72 1022.68
1023.34 1023.32 1023.28 1023.28 1023.28 1023.32 1023.34 1023.40 1023.44 1023.50 1023.54 1023.56 1023.60 1023.60 1023.60 1023.60 1023.60 1023.60 1023.60 1023.56 1023.50 1023.50 1023.50 1023.54 1023.54 1023.56 1023.56 1023.54 1023.54 1023.56 1023.56 1023.50 1023.46 1023.46 1023.46 1023.46 1023.50 1023.46 1023.40 1023.34 1023.28 1023.22 1023.18 1023.18 1023.26 1023.34 1023.34 1023.26 1023.12 1023.10 1023.04 1022.96 1023.00 1023.00 1022.96 1022.94 1022.94 1022.96 1022.96 1022.94 1022.88 1022.84 1022.78 1022.72 1022.68 1022.68 1022.68 1022.66 1022.60
1023.26 1023.26 1023.26 1023.22 1023.22 1023.18 1023.22 1023.28 1023.28 1023.34 1023.40 1023.50 1023.50 1023.50 1023.54 1023.50 1023.46 1023.50 1023.50 1023.50 1023.46 1023.46 1023.50 1023.50 1023.50 1023.50 1023.50 1023.50 1023.50 1023.54 1023.50 1023.44 1023.40 1023.44 1023.46 1023.44 1023.40 1023.40 1023.40 1023.34 1023.26 1023.18 1023.18 1023.18 1023.22 1023.28 1023.32 1023.28 1023.22 1023.16 1023.10 1023.00 1022.96 1022.96 1022.94 1022.90 1022.90 1022.90 1022.90 1022.88 1022.84 1022.82 1022.74 1022.68 1022.62 1022.62 1022.62 1022.62 1022.60
1023.10 1023.12 1023.12 1023.12 1023.12 1023.10 1023.16 1023.22 1023.22 1023.26 1023.34 1023.40 1023.44 1023.44 1023.44 1023.44 1023.40 1023.40 1023.40 1023.44 1023.50 1023.50 1023.46 1023.46 1023.46 1023.44 1023.44 1023.44 1023.44 1023.44 1023.40 1023.34 1023.34 1023.38 1023.44 1023.40 1023.34 1023.34 1023.34 1023.32 1023.26 1023.22 1023.18 1023.16 1023.16 1023.18 1023.22 1023.26 1023.22 1023.16 1023.10 1023.00 1023.00 1022.96 1022.94 1022.90 1022.88 1022.88 1022.88 1022.82 1022.78 1022.78 1022.72 1022.66 1022.62 1022.62 1022.62 1022.60 1022.54
1022.96 1023.00 1023.00 1023.00 1023.00 1023.06 1023.12 1023.16 1023.16 1023.22 1023.28 1023.34 1023.34 1023.38 1023.40 1023.40 1023.40 1023.38 1023.38 1023.44 1023.46 1023.44 1023.38 1023.40 1023.40 1023.38 1023.38 1023.34 1023.34 1023.28 1023.26 1023.26 1023.28 1023.32 1023.34 1023.34 1023.32 1023.32 1023.32 1023.28 1023.26 1023.22 1023.16 1023.10 1023.06 1023.12 1023.18 1023.22 1023.18 1023.16 1023.06 1023.00 1023.00 1022.96 1022.94 1022.90 1022.88 1022.84 1022.84 1022.84 1022.78 1022.74 1022.72 1022.66 1022.62 1022.60 1022.56 1022.50 1022.46
1022.84 1022.88 1022.90 1022.90 1022.94 1023.00 1023.06 1023.06 1023.10 1023.16 1023.22 1023.28 1023.28 1023.32 1023.34 1023.34 1023.34 1023.34 1023.34 1023.40 1023.38 1023.34 1023.34 1023.34 1023.32 1023.34 1023.34 1023.32 1023.26 1023.22 1023.18 1023.18 1023.22 1023.26 1023.28 1023.32 1023.28 1023.28 1023.28 1023.26 1023.22 1023.18 1023.12 1023.04 1023.00 1023.06 1023.12 1023.12 1023.16 1023.12 1023.06 1023.04 1023.00 1022.96 1022.94 1022.90 1022.84 1022.84 1022.84 1022.82 1022.78 1022.74 1022.68 1022.66 1022.62 1022.56 1022.50 1022.40 1022.40
1022.68 1022.74 1022.78 1022.82 1022.88 1022.90 1022.94 1022.96 1023.00 1023.04 1023.10 1023.18 1023.22 1023.26 1023.26 1023.26 1023.26 1023.28 1023.32 1023.34 1023.32 1023.28 1023.28 1023.26 1023.26 1023.22 1023.22 1023.22 1023.22 1023.18 1023.16 1023.12 1023.16 1023.18 1023.22 1023.22 1023.22 1023.26 1023.26 1023.22 1023.18 1023.12 1023.06 1023.00 1022.96 1023.00 1023.04 1023.04 1023.06 1023.06 1023.06 1023.00 1022.96 1022.94 1022.90 1022.88 1022.82 1022.82 1022.82 1022.82 1022.78 1022.74 1022.66 1022.62 1022.56 1022.50 1022.44 1022.38 1022.38
1022.60 1022.60 1022.62 1022.68 1022.74 1022.78 1022.82 1022.82 1022.84 1022.88 1022.96 1023.04 1023.10 1023.16 1023.16 1023.18 1023.16 1023.18 1023.26 1023.28 1023.26 1023.26 1023.26 1023.22 1023.18 1023.12 1023.10 1023.10 1023.10 1023.06 1023.10 1023.10 1023.12 1023.16 1023.16 1023.16 1023.16 1023.18 1023.16 1023.12 1023.12 1023.10 1023.04 1023.00 1022.96 1022.96 1022.96 1023.00 1023.00 1023.00 1023.00 1022.96 1022.94 1022.90 1022.88 1022.84 1022.78 1022.74 1022.74 1022.72 1022.74 1022.68 1022.62 1022.60 1022.54 1022.46 1022.40 1022.34 1022.28
1022.44 1022.44 1022.50 1022.56 1022.60 1022.62 1022.62 1022.66 1022.66 1022.72 1022.82 1022.88 1022.94 1023.00 1023.06 1023.12 1023.12 1023.12 1023.16 1023.16 1023.18 1023.18 1023.18 1023.16 1023.12 1023.10 1023.06 1023.00 1022.96 1023.00 1023.04 1023.06 1023.10 1023.12 1023.10 1023.10 1023.10 1023.10 1023.10 1023.06 1023.04 1023.04 1023.04 1023.00 1022.96 1022.94 1022.94 1022.94 1022.96 1022.96 1022.96 1022.94 1022.90 1022.88 1022.88 1022.84 1022.74 1022.72 1022.72 1022.68 1022.68 1022.62 1022.60 1022.54 1022.46 1022.40 1022.34 1022.28 1022.22
1022.32 1022.32 1022.34 1022.40 1022.40 1022.44 1022.46 1022.46 1022.50 1022.56 1022.62 1022.68 1022.74 1022.84 1022.94 1022.96 1023.04 1023.04 1023.04 1023.00 1023.06 1023.12 1023.10 1023.04 1023.04 1023.04 1023.04 1023.00 1022.94 1022.94 1022.96 1022.96 1023.04 1023.06 1023.04 1023.00 1023.00 1023.00 1023.00 1023.00 1022.96 1022.96 1022.96 1022.96 1022.94 1022.94 1022.90 1022.88 1022.90 1022.90 1022.90 1022.90 1022.88 1022.84 1022.84 1022.78 1022.74 1022.68 1022.66 1022.62 1022.60 1022.54 1022.46 1022.40 1022.34 1022.28 1022.22 1022.16 1022.12
1022.18 1022.18 1022.22 1022.26 1022.26 1022.26 1022.28 1022.34 1022.40 1022.44 1022.44 1022.50 1022.62 1022.72 1022.78 1022.84 1022.90 1022.90 1022.88 1022.88 1022.94 1022.96 1022.96 1022.90 1022.90 1022.90 1022.94 1022.94 1022.94 1022.94 1022.90 1022.90 1022.94 1022.96 1022.96 1022.94 1022.90 1022.90 1022.90 1022.90 1022.90 1022.90 1022.90 1022.90 1022.90 1022.88 1022.84 1022.84 1022.84 1022.84 1022.88 1022.84 1022.82 1022.78 1022.78 1022.74 1022.72 1022.66 1022.60 1022.56 1022.46 1022.44 1022.38 1022.32 1022.22 1022.16 1022.06 1022.04 1022.04
1022.10 1022.10 1022.10 1022.12 1022.10 1022.10 1022.16 1022.18 1022.26 1022.32 1022.32 1022.38 1022.50 1022.56 1022.62 1022.68 1022.74 1022.78 1022.78 1022.72 1022.72 1022.74 1022.78 1022.74 1022.72 1022.74 1022.78 1022.82 1022.84 1022.84 1022.82 1022.84 1022.84 1022.84 1022.88 1022.88 1022.88 1022.84 1022.84 1022.84 1022.84 1022.84 1022.84 1022.88 1022.88 1022.84 1022.82 1022.78 1022.78 1022.82 1022.82 1022.78 1022.74 1022.68 1022.68 1022.68 1022.62 1022.60 1022.54 1022.46 1022.38 1022.32 1022.26 1022.18 1022.12 1022.04 1021.94 1021.88 1021.90
1022.00 1022.00 1022.00 1021.96 1022.00 1022.04 1022.06 1022.10 1022.12 1022.16 1022.22 1022.26 1022.32 1022.40 1022.46 1022.46 1022.54 1022.60 1022.60 1022.56 1022.50 1022.50 1022.56 1022.60 1022.62 1022.62 1022.66 1022.68 1022.74 1022.74 1022.74 1022.72 1022.72 1022.74 1022.74 1022.78 1022.82 1022.78 1022.78 1022.78 1022.82 1022.82 1022.82 1022.82 1022.82 1022.78 1022.78 1022.72 1022.72 1022.74 1022.74 1022.72 1022.66 1022.60 1022.56 1022.60 1022.56 1022.50 1022.44 1022.34 1022.28 1022.22 1022.16 1022.06 1022.00 1021.90 1021.84 1021.82 1021.78
1021.78 1021.82 1021.84 1021.84 1021.90 1021.96 1022.00 1022.00 1022.04 1022.10 1022.12 1022.16 1022.18 1022.22 1022.28 1022.34 1022.38 1022.38 1022.38 1022.34 1022.34 1022.38 1022.44 1022.46 1022.54 1022.56 1022.60 1022.60 1022.62 1022.66 1022.66 1022.68 1022.66 1022.62 1022.62 1022.66 1022.62 1022.62 1022.66 1022.68 1022.72 1022.72 1022.74 1022.74 1022.72 1022.68 1022.68 1022.66 1022.66 1022.66 1022.62 1022.60 1022.56 1022.54 1022.50 1022.50 1022.50 1022.40 1022.32 1022.26 1022.18 1022.12 1022.04 1021.96 1021.84 1021.82 1021.78 1021.74 1021.72
1021.50 1021.56 1021.66 1021.74 1021.82 1021.84 1021.90 1021.94 1022.00 1022.04 1022.06 1022.04 1022.04 1022.06 1022.12 1022.18 1022.22 1022.26 1022.26 1022.26 1022.28 1022.32 1022.38 1022.40 1022.44 1022.46 1022.46 1022.50 1022.54 1022.56 1022.56 1022.60 1022.54 1022.50 1022.50 1022.50 1022.50 1022.50 1022.50 1022.54 1022.56 1022.56 1022.56 1022.56 1022.56 1022.56 1022.56 1022.54 1022.56 1022.54 1022.50 1022.46 1022.46 1022.46 1022.44 1022.44 1022.38 1022.32 1022.22 1022.16 1022.10 1022.00 1021.90 1021.82 1021.74 1021.72 1021.68 1021.62 1021.62
1021.22 1021.34 1021.46 1021.56 1021.66 1021.72 1021.78 1021.84 1021.94 1021.96 1021.96 1021.96 1021.94 1021.94 1022.00 1022.06 1022.12 1022.16 1022.16 1022.22 1022.26 1022.26 1022.28 1022.32 1022.34 1022.38 1022.40 1022.44 1022.46 1022.46 1022.44 1022.44 1022.38 1022.34 1022.32 1022.32 1022.34 1022.32 1022.34 1022.34 1022.38 1022.40 1022.40 1022.40 1022.40 1022.40 1022.44 1022.44 1022.40 1022.40 1022.40 1022.34 1022.34 1022.32 1022.32 1022.32 1022.28 1022.22 1022.12 1022.06 1022.00 1021.90 1021.82 1021.72 1021.66 1021.60 1021.60 1021.56 1021.56
1021.00 1021.12 1021.26 1021.34 1021.46 1021.56 1021.60 1021.68 1021.78 1021.84 1021.84 1021.84 1021.84 1021.84 1021.88 1021.90 1022.00 1022.04 1022.06 1022.10 1022.12 1022.16 1022.18 1022.26 1022.28 1022.32 1022.34 1022.34 1022.34 1022.34 1022.32 1022.28 1022.22 1022.18 1022.18 1022.18 1022.18 1022.18 1022.18 1022.22 1022.22 1022.22 1022.22 1022.22 1022.22 1022.22 1022.26 1022.28 1022.32 1022.32 1022.28 1022.26 1022.18 1022.18 1022.22 1022.18 1022.16 1022.10 1022.04 1021.96 1021.90 1021.82 1021.68 1021.62 1021.60 1021.56 1021.54 1021.50 1021.50
1020.84 1020.94 1021.04 1021.12 1021.26 1021.32 1021.44 1021.54 1021.60 1021.62 1021.66 1021.66 1021.72 1021.74 1021.74 1021.78 1021.82 1021.88 1021.94 1021.96 1022.00 1022.04 1022.10 1022.12 1022.16 1022.22 1022.22 1022.22 1022.18 1022.18 1022.16 1022.16 1022.10 1022.10 1022.10 1022.06 1022.04 1022.04 1022.06 1022.06 1022.06 1022.06 1022.04 1022.04 1022.00 1021.96 1021.94 1021.96 1022.06 1022.10 1022.12 1022.12 1022.10 1022.10 1022.10 1022.06 1022.04 1021.96 1021.94 1021.88 1021.78 1021.68 1021.60 1021.54 1021.54 1021.54 1021.50 1021.44 1021.44
1020.68 1020.78 1020.88 1020.90 1021.04 1021.12 1021.22 1021.28 1021.28 1021.34 1021.40 1021.46 1021.54 1021.60 1021.60 1021.62 1021.66 1021.72 1021.78 1021.82 1021.84 1021.88 1021.94 1022.00 1022.06 1022.06 1022.06 1022.06 1022.04 1022.00 1022.00 1022.00 1021.96 1021.96 1021.94 1021.90 1021.90 1021.90 1021.90 1021.90 1021.88 1021.88 1021.88 1021.82 1021.74 1021.68 1021.66 1021.60 1021.62 1021.68 1021.78 1021.90 1021.90 1021.94 1021.94 1021.90 1021.88 1021.82 1021.78 1021.72 1021.62 1021.54 1021.46 1021.46 1021.46 1021.46 1021.44 1021.34 1021.34
1020.50 1020.60 1020.66 1020.72 1020.82 1020.88 1020.90 1020.94 1021.00 1021.10 1021.18 1021.26 1021.32 1021.38 1021.38 1021.44 1021.50 1021.54 1021.56 1021.62 1021.66 1021.72 1021.78 1021.84 1021.88 1021.88 1021.88 1021.88 1021.84 1021.82 1021.82 1021.82 1021.82 1021.82 1021.78 1021.78 1021.78 1021.74 1021.74 1021.74 1021.72 1021.68 1021.66 1021.60 1021.54 1021.44 1021.38 1021.32 1021.26 1021.26 1021.34 1021.54 1021.60 1021.66 1021.68 1021.68 1021.66 1021.62 1021.60 1021.56 1021.46 1021.44 1021.40 1021.40 1021.40 1021.40 1021.38 1021.28 1021.26
1020.28 1020.34 1020.44 1020.54 1020.62 1020.66 1020.66 1020.72 1020.82 1020.88 1020.90 1020.94 1021.00 1021.06 1021.16 1021.28 1021.32 1021.34 1021.38 1021.40 1021.46 1021.54 1021.60 1021.62 1021.66 1021.68 1021.68 1021.68 1021.62 1021.60 1021.62 1021.62 1021.62 1021.66 1021.62 1021.62 1021.66 1021.62 1021.56 1021.56 1021.56 1021.54 1021.46 1021.40 1021.32 1021.26 1021.16 1021.10 1021.00 1020.94 1020.94 1021.06 1021.22 1021.34 1021.38 1021.44 1021.44 1021.40 1021.38 1021.34 1021.28 1021.26 1021.28 1021.28 1021.32 1021.32 1021.28 1021.18 1021.16
1020.06 1020.16 1020.28 1020.38 1020.40 1020.44 1020.46 1020.54 1020.60 1020.60 1020.60 1020.66 1020.72 1020.82 1020.90 1021.00 1021.10 1021.12 1021.16 1021.18 1021.28 1021.32 1021.38 1021.38 1021.44 1021.50 1021.50 1021.44 1021.40 1021.40 1021.40 1021.44 1021.46 1021.50 1021.50 1021.50 1021.50 1021.44 1021.40 1021.38 1021.38 1021.34 1021.28 1021.18 1021.10 1021.04 1020.96 1020.90 1020.84 1020.74 1020.68 1020.66 1020.88 1021.04 1021.10 1021.12 1021.16 1021.16 1021.12 1021.10 1021.06 1021.10 1021.10 1021.10 1021.16 1021.18 1021.18 1021.12 1021.06
1019.88 1020.00 1020.10 1020.16 1020.18 1020.26 1020.28 1020.32 1020.34 1020.38 1020.44 1020.50 1020.60 1020.68 1020.74 1020.78 1020.84 1020.88 1020.90 1020.96 1021.04 1021.04 1021.10 1021.16 1021.22 1021.26 1021.22 1021.18 1021.22 1021.28 1021.28 1021.28 1021.32 1021.34 1021.34 1021.32 1021.28 1021.26 1021.22 1021.22 1021.22 1021.18 1021.10 1021.00 1020.90 1020.82 1020.72 1020.68 1020.66 1020.56 1020.46 1020.38 1020.50 1020.66 1020.78 1020.84 1020.84 1020.84 1020.84 1020.84 1020.88 1020.90 1020.94 1020.96 1021.04 1021.06 1021.06 1021.00 1020.94
1019.74 1019.84 1019.94 1019.96 1020.00 1020.04 1020.06 1020.10 1020.16 1020.26 1020.34 1020.44 1020.50 1020.56 1020.56 1020.60 1020.60 1020.60 1020.62 1020.68 1020.72 1020.78 1020.88 1020.96 1021.00 1021.00 1020.96 1021.00 1021.04 1021.06 1021.10 1021.10 1021.16 1021.18 1021.16 1021.12 1021.06 1021.04 1021.00 1021.04 1021.04 1021.00 1020.94 1020.88 1020.72 1020.62 1020.54 1020.46 1020.40 1020.38 1020.32 1020.22 1020.22 1020.32 1020.40 1020.50 1020.50 1020.56 1020.60 1020.66 1020.68 1020.72 1020.78 1020.84 1020.88 1020.88 1020.88 1020.84 1020.78
1019.56 1019.68 1019.74 1019.82 1019.82 1019.78 1019.82 1019.90 1020.00 1020.10 1020.22 1020.28 1020.34 1020.38 1020.38 1020.34 1020.32 1020.32 1020.34 1020.40 1020.50 1020.62 1020.68 1020.74 1020.78 1020.74 1020.74 1020.78 1020.84 1020.88 1020.88 1020.90 1020.90 1020.94 1020.90 1020.88 1020.88 1020.84 1020.84 1020.82 1020.84 1020.82 1020.74 1020.66 1020.60 1020.46 1020.34 1020.28 1020.18 1020.16 1020.12 1020.06 1020.00 1020.04 1020.12 1020.18 1020.28 1020.34 1020.38 1020.46 1020.50 1020.56 1020.60 1020.68 1020.72 1020.74 1020.74 1020.72 1020.72
1019.38 1019.50 1019.56 1019.60 1019.56 1019.56 1019.62 1019.72 1019.82 1019.94 1020.00 1020.06 1020.16 1020.16 1020.16 1020.12 1020.12 1020.12 1020.18 1020.22 1020.28 1020.38 1020.46 1020.50 1020.54 1020.54 1020.54 1020.56 1020.62 1020.66 1020.66 1020.68 1020.68 1020.68 1020.68 1020.66 1020.66 1020.66 1020.66 1020.60 1020.60 1020.56 1020.50 1020.44 1020.38 1020.28 1020.18 1020.10 1020.04 1019.96 1019.90 1019.84 1019.82 1019.84 1019.90 1019.96 1020.06 1020.16 1020.22 1020.32 1020.34 1020.40 1020.44 1020.50 1020.56 1020.60 1020.62 1020.60 1020.60
1019.22 1019.32 1019.34 1019.34 1019.34 1019.38 1019.46 1019.56 1019.66 1019.74 1019.84 1019.88 1019.90 1019.88 1019.90 1019.94 1019.96 1019.96 1020.00 1020.04 1020.06 1020.12 1020.18 1020.26 1020.28 1020.32 1020.32 1020.34 1020.40 1020.40 1020.40 1020.40 1020.44 1020.44 1020.44 1020.46 1020.46 1020.44 1020.40 1020.34 1020.34 1020.32 1020.28 1020.26 1020.16 1020.06 1020.00 1019.90 1019.84 1019.78 1019.72 1019.66 1019.66 1019.66 1019.72 1019.82 1019.88 1019.94 1020.04 1020.16 1020.26 1020.32 1020.34 1020.38 1020.40 1020.44 1020.44 1020.44 1020.44
1018.96 1019.06 1019.12 1019.12 1019.12 1019.16 1019.26 1019.38 1019.46 1019.56 1019.62 1019.66 1019.62 1019.62 1019.62 1019.68 1019.72 1019.72 1019.74 1019.78 1019.88 1019.94 1019.96 1020.04 1020.06 1020.12 1020.16 1020.18 1020.18 1020.22 1020.26 1020.18 1020.18 1020.18 1020.22 1020.26 1020.28 1020.22 1020.16 1020.06 1020.06 1020.04 1020.04 1020.00 1019.94 1019.84 1019.78 1019.72 1019.62 1019.60 1019.54 1019.50 1019.50 1019.50 1019.56 1019.62 1019.68 1019.78 1019.88 1020.00 1020.10 1020.16 1020.22 1020.26 1020.28 1020.32 1020.32 1020.32 1020.28
1018.72 1018.78 1018.84 1018.88 1018.90 1018.96 1019.06 1019.16 1019.26 1019.34 1019.40 1019.40 1019.34 1019.34 1019.38 1019.40 1019.40 1019.44 1019.50 1019.60 1019.66 1019.72 1019.74 1019.78 1019.88 1019.90 1019.94 1019.94 1019.96 1019.96 1019.96 1019.94 1019.94 1019.96 1019.96 1020.00 1020.04 1020.00 1019.94 1019.84 1019.82 1019.82 1019.78 1019.74 1019.72 1019.62 1019.54 1019.46 1019.44 1019.38 1019.34 1019.34 1019.34 1019.40 1019.44 1019.50 1019.56 1019.62 1019.72 1019.78 1019.90 1020.00 1020.04 1020.10 1020.12 1020.18 1020.18 1020.16 1020.12
1018.44 1018.50 1018.56 1018.62 1018.66 1018.72 1018.82 1018.94 1019.04 1019.10 1019.10 1019.06 1019.04 1019.04 1019.10 1019.12 1019.16 1019.26 1019.32 1019.40 1019.50 1019.50 1019.50 1019.56 1019.62 1019.66 1019.66 1019.66 1019.68 1019.66 1019.66 1019.72 1019.74 1019.74 1019.74 1019.78 1019.78 1019.74 1019.68 1019.60 1019.60 1019.60 1019.56 1019.54 1019.46 1019.40 1019.32 1019.26 1019.18 1019.16 1019.16 1019.22 1019.28 1019.34 1019.40 1019.46 1019.46 1019.50 1019.56 1019.66 1019.72 1019.82 1019.88 1019.90 1019.96 1020.00 1020.04 1020.00 1019.96
1018.16 1018.26 1018.32 1018.38 1018.40 1018.46 1018.54 1018.66 1018.74 1018.78 1018.74 1018.68 1018.68 1018.74 1018.78 1018.88 1018.94 1019.00 1019.10 1019.16 1019.26 1019.26 1019.26 1019.28 1019.32 1019.32 1019.28 1019.34 1019.38 1019.40 1019.44 1019.46 1019.54 1019.54 1019.54 1019.50 1019.50 1019.50 1019.46 1019.40 1019.34 1019.34 1019.34 1019.32 1019.22 1019.16 1019.10 1019.04 1018.96 1018.94 1018.96 1019.04 1019.12 1019.26 1019.34 1019.40 1019.40 1019.40 1019.44 1019.46 1019.50 1019.56 1019.66 1019.72 1019.78 1019.82 1019.84 1019.84 1019.82
1017.88 1017.96 1018.06 1018.12 1018.18 1018.22 1018.28 1018.40 1018.44 1018.40 1018.38 1018.38 1018.44 1018.46 1018.54 1018.62 1018.66 1018.72 1018.82 1018.88 1018.94 1018.96 1018.96 1019.00 1018.96 1019.00 1019.04 1019.16 1019.22 1019.18 1019.18 1019.22 1019.22 1019.26 1019.26 1019.26 1019.22 1019.18 1019.22 1019.18 1019.12 1019.10 1019.10 1019.06 1019.00 1018.94 1018.88 1018.78 1018.74 1018.72 1018.74 1018.82 1018.94 1019.06 1019.16 1019.26 1019.28 1019.28 1019.28 1019.28 1019.34 1019.40 1019.46 1019.54 1019.60 1019.66 1019.68 1019.72 1019.66
1017.62 1017.72 1017.82 1017.88 1017.90 1017.96 1018.04 1018.10 1018.06 1018.06 1018.06 1018.12 1018.16 1018.22 1018.26 1018.32 1018.34 1018.40 1018.50 1018.60 1018.66 1018.68 1018.72 1018.72 1018.72 1018.78 1018.88 1018.96 1019.00 1018.96 1018.94 1018.94 1018.94 1018.94 1018.96 1018.94 1018.94 1018.90 1018.90 1018.90 1018.84 1018.82 1018.82 1018.78 1018.74 1018.68 1018.62 1018.56 1018.54 1018.54 1018.54 1018.62 1018.74 1018.88 1018.96 1019.06 1019.10 1019.12 1019.12 1019.10 1019.18 1019.26 1019.32 1019.34 1019.40 1019.50 1019.56 1019.56 1019.54
1017.40 1017.50 1017.56 1017.62 1017.66 1017.68 1017.74 1017.78 1017.72 1017.72 1017.74 1017.82 1017.84 1017.84 1017.90 1018.00 1018.10 1018.18 1018.28 1018.38 1018.40 1018.44 1018.46 1018.50 1018.54 1018.60 1018.68 1018.74 1018.74 1018.74 1018.68 1018.66 1018.66 1018.66 1018.68 1018.72 1018.68 1018.66 1018.62 1018.60 1018.56 1018.56 1018.60 1018.56 1018.50 1018.44 1018.38 1018.32 1018.32 1018.32 1018.32 1018.38 1018.56 1018.66 1018.74 1018.82 1018.88 1018.94 1018.94 1018.94 1019.00 1019.06 1019.16 1019.22 1019.26 1019.34 1019.40 1019.46 1019.44
Wind_Speed
0 0 0 1 1 1 1 1 0 0 1 1 1 1 1 2 1 1 1 1 1 1 1 1 2 2 2 2 1 0 1 1 2 2 2 2 2 2 2 1 1 2 3 3 3 4 4 4 3 2 2 2 2 2 3 3 3 4 4 4 3 3 2 3 3 3 3 3 2
1 1 1 1 0 0 0 0 0 0 0 0 1 1 1 1 1 1 1 1 1 1 1 1 1 2 2 1 1 1 1 1 1 2 2 2 2 2 1 1 1 2 3 3 3 3 3 3 2 2 2 2 2 3 3 3 3 4 4 4 3 2 2 2 2 2 2 2 2
1 1 0 0 0 0 0 0 1 1 1 1 0 0 0 1 1 1 1 1 1 1 1 1 1 2 1 1 0 1 1 1 1 1 2 2 2 2 1 1 1 2 3 3 3 3 3 3 2 2 2 2 2 3 3 3 3 3 3 3 2 2 2 2 2 1 1 2 2
1 1 1 1 1 1 1 1 1 1 1 1 0 0 0 0 0 0 1 1 1 1 1 1 1 1 1 0 0 1 0 1 1 1 2 2 3 2 1 1 1 2 2 2 2 2 2 2 2 1 2 2 2 2 2 2 3 2 2 2 1 1 2 1 1 1 1 1 1
2 2 2 2 2 2 2 1 1 1 1 1 0 0 0 0 0 0 0 1 1 1 1 1 1 1 1 0 1 1 0 0 1 1 1 2 3 2 2 1 1 1 2 2 2 2 2 2 1 1 1 1 1 1 1 1 2 2 1 1 1 1 1 1 1 1 1 1 1
3 3 2 2 2 2 2 2 2 2 1 0 0 0 1 0 0 0 1 1 2 1 1 1 1 1 1 1 1 1 0 0 1 1 1 2 2 2 2 2 1 1 1 2 2 2 2 2 1 0 1 1 1 1 0 1 2 2 2 2 1 1 1 1 0 0 1 1 0
4 3 3 3 3 2 2 2 2 1 1 0 0 1 1 1 1 1 2 2 1 1 1 1 1 1 1 1 1 1 0 0 0 0 1 1 2 2 2 2 1 0 1 1 2 2 2 2 1 0 0 1 1 1 1 1 2 2 2 2 1 1 0 1 0 0 1 1 1
3 4 3 3 3 3 3 3 2 1 1 1 1 2 2 2 2 2 2 2 2 2 1 1 1 2 2 2 1 1 1 1 0 0 1 1 2 3 3 2 1 1 1 1 2 2 2 2 1 1 0 0 0 0 1 1 1 1 1 2 1 1 0 0 0 0 1 1 2
3 3 3 3 3 3 3 3 2 2 2 2 2 3 3 3 3 3 3 3 3 2 1 1 2 2 2 2 2 1 1 1 0 1 2 3 2 3 3 3 2 2 1 1 1 2 2 2 2 1 1 0 0 0 1 1 1 1 1 1 1 1 1 1 1 1 1 2 2
4 4 3 3 3 3 3 3 3 3 3 3 3 3 4 4 4 3 3 3 2 2 2 2 2 2 2 2 2 2 2 1 1 2 3 3 3 3 3 3 3 3 2 2 1 2 2 2 2 2 2 1 1 0 1 1 1 1 1 1 1 1 1 1 1 1 1 2 1
5 5 4 4 4 4 4 4 4 4 4 3 4 4 4 4 4 3 3 2 2 2 2 2 2 2 2 2 2 3 2 2 1 2 3 3 3 3 3 3 3 4 3 3 2 2 2 2 2 2 2 2 1 1 1 2 2 2 2 2 2 2 1 1 1 1 2 2 1
6 5 5 4 4 4 4 5 4 4 4 4 4 4 4 4 4 3 3 2 3 3 3 2 2 3 3 2 3 2 2 2 2 2 2 3 3 3 3 3 4 4 4 4 3 2 2 2 3 3 3 2 2 2 2 3 2 2 2 2 2 2 1 2 2 2 2 2 2
6 5 5 5 5 5 5 5 4 4 4 5 5 4 4 4 3 3 3 3 4 4 3 2 3 3 3 2 2 2 2 1 2 2 3 3 4 4 4 4 4 5 5 4 3 2 2 3 3 4 4 3 3 3 3 3 3 2 2 2 2 2 2 2 2 2 2 2 2
6 6 6 5 6 6 6 5 5 4 4 5 5 4 4 4 3 3 3 4 4 4 3 2 2 3 3 3 2 2 1 1 2 3 3 4 4 4 4 4 5 5 5 4 3 3 3 3 4 4 4 4 4 3 3 3 3 2 2 2 2 2 3 3 3 3 3 3 2
7 7 7 6 6 6 6 6 5 5 5 5 5 4 4 3 3 3 3 4 4 3 3 2 2 2 3 3 2 2 2 2 2 3 4 5 5 4 4 5 5 5 5 4 4 3 3 4 4 4 4 4 4 4 4 4 3 3 3 3 3 3 3 4 4 3 3 3 2
8 7 7 7 7 7 6 6 4 5 5 5 4 4 3 3 3 3 3 4 3 3 2 2 2 2 2 2 2 2 2 2 3 4 5 5 5 5 5 5 5 5 5 5 5 4 4 4 4 4 5 5 5 4 4 5 4 4 3 3 4 4 4 4 4 4 4 4 3
8 8 7 7 8 7 7 6 5 5 5 5 4 4 3 3 3 3 3 4 3 3 3 3 3 2 2 2 2 2 2 3 3 4 4 5 5 6 6 6 5 5 5 5 5 5 5 5 4 5 5 5 5 5 5 5 5 4 4 4 4 4 4 4 4 5 5 5 3
8 8 8 8 8 8 8 7 6 6 6 6 5 4 3 3 3 3 4 4 4 4 4 4 3 2 2 2 2 2 3 3 4 4 5 5 6 6 6 6 6 5 5 5 6 6 6 5 5 5 5 5 5 5 5 5 5 5 5 5 5 5 4 4 5 6 6 5 3
8 8 8 9 9 8 8 8 7 6 6 6 5 4 4 4 4 4 4 5 5 5 5 4 4 3 3 3 3 3 4 4 5 5 5 6 6 6 6 6 5 5 5 6 6 6 6 6 6 5 5 6 6 5 5 5 5 5 5 5 5 5 5 5 6 6 6 4 3
8 8 9 9 8 8 8 8 7 6 6 5 5 5 5 5 5 5 5 6 6 5 5 5 4 4 4 5 5 5 5 4 5 5 6 6 6 6 6 6 6 6 6 6 7 7 7 6 6 6 6 7 6 6 5 5 5 5 5 5 5 5 5 6 7 6 5 4 3
9 9 9 8 8 7 7 7 6 6 6 6 6 6 6 6 6 6 7 7 6 5 5 5 5 5 6 6 6 6 5 5 5 6 6 6 7 7 6 6 6 7 7 7 7 7 7 7 6 6 7 7 7 6 5 4 5 5 5 5 5 5 6 7 6 5 4 3 3
9 9 8 8 7 7 7 6 6 6 6 6 6 6 7 7 7 7 7 7 6 6 5 5 6 6 6 6 6 6 6 5 6 6 6 6 7 7 7 6 7 7 7 7 7 7 7 7 7 7 7 7 6 6 5 5 5 5 5 5 6 7 7 7 6 5 4 3 3
8 7 7 7 7 7 7 6 6 6 6 7 6 6 6 7 7 7 7 7 7 6 6 6 6 6 6 6 7 7 6 6 7 7 7 7 7 7 7 6 7 7 7 7 7 7 7 7 7 7 7 7 6 6 6 6 6 5 6 6 7 7 7 7 5 4 3 3 3
8 7 6 6 6 6 7 6 6 6 7 7 7 7 7 7 7 7 7 7 7 7 6 6 6 6 7 7 8 7 7 7 7 7 7 7 7 7 7 6 7 7 7 6 7 7 7 6 5 6 7 7 6 6 5 5 5 5 6 7 7 7 6 5 4 3 3 3 3
8 7 6 6 6 6 6 7 7 8 8 8 7 7 7 7 7 7 7 7 7 7 7 7 7 7 7 8 8 8 7 7 8 8 8 8 8 7 7 6 6 6 6 7 10 12 12 10 7 6 6 6 6 5 5 5 5 5 6 7 7 7 5 4 3 3 3 4 4
7 7 7 8 7 7 8 8 9 9 8 7 7 7 7 6 7 7 7 7 7 7 7 7 7 7 7 7 8 8 8 8 8 9 9 9 8 8 7 6 6 6 7 9 12 14 14 14 13 10 8 6 6 6 5 5 6 6 6 7 8 6 5 3 3 3 4 4 4
7 7 8 7 8 8 9 9 9 9 8 8 8 8 8 7 7 7 7 8 8 7 7 7 7 8 8 8 8 9 9 8 8 8 8 8 9 9 8 7 6 6 7 10 13 14 15 15 15 14 11 8 7 7 6 6 6 7 7 7 7 6 4 3 3 4 4 4 4
7 7 7 7 8 9 9 9 9 9 9 9 9 9 8 8 8 8 8 8 8 7 7 7 7 7 7 7 8 8 9 8 8 8 7 8 8 8 8 8 7 7 9 12 14 15 15 15 15 15 14 11 8 7 7 7 7 7 7 7 6 5 4 4 4 4 5 5 4
8 7 7 8 9 9 9 8 9 10 10 9 9 9 8 8 8 8 8 8 8 8 7 6 6 5 6 7 7 8 8 8 7 7 7 8 9 9 9 9 8 9 11 14 15 15 15 15 15 16 15 13 9 7 7 7 7 7 6 6 5 5 4 4 4 4 5 5 4
7 7 8 8 9 9 9 9 10 9 9 8 8 8 8 9 9 9 9 9 9 8 7 5 5 6 7 8 7 7 7 7 7 7 8 9 10 10 10 9 8 9 11 15 15 15 15 15 15 16 16 15 10 8 7 7 7 7 6 5 5 5 5 5 4 5 5 4 4
7 7 8 8 9 9 9 9 8 8 7 7 7 8 9 9 10 10 10 10 8 7 7 7 7 8 9 8 8 8 8 8 7 8 9 10 11 11 10 8 8 9 11 15 16 16 16 16 16 16 16 16 11 8 6 7 7 6 6 5 5 5 5 4 5 5 5 5 4
7 7 8 8 9 9 9 8 8 7 7 7 8 8 9 10 10 9 8 7 7 7 8 9 9 10 10 9 9 9 9 9 9 9 9 10 10 10 9 8 8 9 12 15 16 17 16 16 16 16 16 16 12 8 6 6 6 6 5 5 6 6 6 5 4 5 5 5 5
7 8 8 9 9 9 8 7 7 7 7 8 9 9 10 10 8 7 7 6 7 8 9 10 10 10 10 10 10 10 10 10 10 10 11 10 10 9 9 8 8 10 12 16 17 17 17 17 16 16 16 16 12 8 6 6 5 5 5 5 5 5 5 5 4 4 5 5 5
7 8 8 9 9 9 8 7 7 7 7 8 9 10 10 9 8 8 7 7 7 8 8 8 9 9 9 8 9 10 10 10 10 10 10 9 9 9 9 9 7 9 12 16 17 17 17 17 16 16 16 16 11 7 5 6 5 5 5 5 5 5 4 4 4 4 5 5 5
8 8 9 9 9 9 8 7 7 7 8 9 10 10 10 9 10 9 8 8 8 8 7 7 7 7 7 7 8 9 10 10 10 9 9 8 8 9 10 10 8 10 13 16 17 17 17 17 16 16 15 14 9 6 5 5 5 5 6 6 5 5 4 4 4 4 5 5 6
8 9 9 9 9 9 8 8 7 8 9 10 11 11 10 10 9 8 8 8 8 8 8 7 7 8 9 9 9 10 11 11 10 9 9 8 8 9 10 10 10 11 14 16 17 17 17 17 16 16 15 11 6 4 4 4 5 5 6 6 6 5 5 5 4 5 5 5 6
8 9 9 9 9 9 8 8 8 9 10 11 11 11 10 10 8 7 6 7 8 9 9 8 9 9 10 10 10 10 10 10 9 9 9 9 9 9 10 10 10 11 13 16 17 17 17 17 16 15 13 9 4 3 3 3 4 5 5 5 5 5 5 4 4 4 5 6 6
8 9 9 9 9 9 9 8 9 10 11 12 11 10 9 8 7 7 7 7 8 9 10 10 10 10 10 9 9 9 9 9 9 10 10 10 10 10 10 10 10 10 11 14 16 17 17 17 16 15 13 8 4 3 3 3 4 4 5 5 5 5 4 4 4 4 4 6 8
8 8 9 9 9 9 9 9 10 11 11 11 10 9 8 7 7 6 6 7 8 9 9 10 10 9 9 8 8 9 9 9 10 10 10 10 10 10 11 11 10 9 10 13 15 16 17 16 16 15 14 9 5 4 4 4 4 4 5 5 4 4 4 4 3 3 4 6 10
8 8 9 9 9 9 10 10 11 11 11 10 10 9 9 7 7 7 7 7 7 8 8 9 9 9 8 9 9 9 9 9 9 10 11 11 11 12 13 12 10 10 10 13 15 16 16 16 16 16 14 9 5 4 4 4 4 5 5 5 4 4 3 3 3 3 4 6 9
7 7 8 9 9 10 10 11 11 11 10 10 10 9 8 7 7 7 7 7 7 8 8 8 9 8 8 9 8 9 9 10 10 10 10 11 11 12 13 11 10 9 9 11 14 16 16 16 16 16 14 9 5 4 4 4 4 5 6 5 4 4 3 3 3 3 4 5 6
Wind_Direction
168 182 200 196 193 198 218 265 275 215 166 167 174 176 174 163 170 183 193 184 181 187 193 194 193 201 211 221 198 107 50 25 16 13 17 23 15 1 348 346 32 45 42 30 22 15 10 4 2 11 29 41 38 32 26 20 16 20 25 27 25 27 33 41 40 37 35 33 26
185 214 246 259 243 236 267 292 318 329 322 225 189 183 180 172 174 180 190 197 197 197 195 190 197 209 217 217 172 117 90 58 27 14 10 8 3 352 338 329 27 46 46 36 25 17 8 1 2 18 37 46 41 33 25 18 21 25 27 22 17 21 32 38 38 37 38 35 24
186 199 236 294 358 346 299 275 284 293 290 288 277 225 194 194 187 186 190 200 211 215 207 194 206 221 228 221 155 116 111 110 54 20 4 353 351 346 336 314 19 42 44 36 24 13 4 355 360 25 49 54 47 35 23 11 21 28 29 17 11 15 25 30 23 23 28 36 32
196 196 197 200 202 214 223 232 245 251 256 265 277 268 233 240 232 207 198 198 225 229 222 203 210 225 238 212 110 101 110 120 75 37 6 347 342 338 329 303 15 37 38 29 16 6 357 351 356 27 60 70 61 46 26 9 21 27 28 11 10 18 23 22 16 17 26 33 36
217 209 201 194 198 201 204 204 219 232 241 247 260 268 243 225 215 226 243 233 234 231 222 205 205 213 225 150 114 106 91 72 66 45 11 342 334 331 327 312 9 41 38 22 5 355 349 347 348 32 87 98 84 72 38 15 26 24 16 357 5 14 15 18 22 32 37 28 18
217 215 208 195 190 191 196 199 209 216 223 208 236 299 286 269 243 243 242 239 243 242 234 209 192 187 181 155 130 129 125 77 71 54 14 334 326 328 329 313 300 41 43 15 353 344 341 344 341 330 150 137 120 111 56 39 39 30 13 351 343 349 7 7 11 49 58 28 359
210 210 206 198 187 185 190 200 200 199 191 155 196 261 265 267 264 256 249 249 262 263 249 211 186 183 181 168 150 142 148 160 91 72 21 327 318 320 316 301 288 22 43 11 343 336 334 336 331 309 200 142 122 96 56 50 46 33 11 344 324 322 342 337 335 15 24 356 348
212 210 206 198 185 182 185 190 186 180 184 201 227 240 248 256 258 259 260 265 262 255 236 200 189 191 187 171 158 160 173 176 93 11 339 315 310 309 306 295 288 314 7 353 335 328 326 325 325 308 261 174 115 91 64 52 47 31 4 323 306 296 276 257 285 335 347 346 344
219 217 213 204 193 187 187 190 189 192 208 229 234 237 242 249 252 254 258 259 253 245 229 203 194 192 185 172 166 175 183 174 73 325 305 289 286 293 298 295 295 301 310 311 320 322 321 320 322 314 299 268 83 58 28 22 22 359 322 294 298 294 285 258 296 326 333 328 326
215 215 213 211 208 204 204 212 218 222 227 238 242 245 248 255 253 249 245 247 248 246 234 213 195 188 185 184 182 186 192 190 253 280 278 270 269 274 282 289 293 290 282 270 270 289 303 308 314 314 311 322 349 359 332 304 289 279 278 277 285 291 292 291 310 314 310 303 301
209 209 208 208 210 211 215 223 234 237 238 243 247 250 252 257 256 251 242 241 243 240 233 216 196 190 192 195 193 194 195 195 227 250 259 267 273 274 275 282 285 280 270 255 249 257 274 287 292 292 290 295 305 298 277 264 257 255 255 263 266 272 282 289 290 287 285 284 283
208 208 208 206 207 208 213 220 228 233 235 240 245 247 249 250 249 247 242 233 231 233 231 216 198 195 199 202 201 199 195 189 206 233 252 266 273 276 276 280 281 278 272 258 243 235 243 259 270 273 273 271 276 270 258 249 246 243 247 258 260 262 268 273 275 271 267 266 263
207 207 208 208 206 208 211 217 220 224 228 235 241 244 247 248 245 240 232 222 226 230 229 217 203 199 201 204 207 205 203 204 221 241 252 259 264 267 270 272 276 277 275 264 243 227 226 239 255 263 267 262 258 255 252 246 238 233 241 257 267 268 266 268 269 266 263 257 245
206 206 207 207 206 208 211 215 218 221 226 233 238 242 247 250 247 237 224 219 225 227 225 216 209 207 206 203 200 199 204 219 235 245 251 255 257 258 260 262 267 272 274 272 254 235 226 232 244 254 260 260 255 256 258 259 247 238 237 247 258 262 265 266 266 268 269 261 242
208 207 206 204 205 208 211 213 217 222 228 233 236 240 244 251 250 240 226 221 225 224 218 208 211 216 216 209 198 196 206 229 242 249 252 256 257 256 256 257 261 266 271 275 266 251 239 236 241 247 253 256 254 256 261 268 262 252 241 238 244 251 258 262 266 272 275 267 248
210 209 206 203 206 209 212 212 215 221 227 232 231 234 239 246 249 243 234 227 228 224 216 209 209 216 225 223 210 205 215 234 244 249 251 253 254 254 255 255 256 260 264 268 266 258 248 241 242 245 249 251 251 251 253 259 260 257 249 243 242 245 249 255 262 269 271 265 251
213 211 207 205 208 211 213 214 215 220 225 229 227 228 233 240 246 247 242 234 228 224 220 216 205 204 216 237 229 222 224 236 244 248 250 251 252 253 253 252 252 253 256 260 261 258 253 244 243 245 247 248 246 244 244 248 253 253 251 248 247 246 248 253 261 266 266 260 248
217 215 211 209 212 214 214 214 214 218 222 226 224 226 229 236 240 245 245 238 225 217 216 219 206 199 205 235 242 238 234 237 243 249 253 256 257 257 257 256 254 254 254 256 258 257 254 248 243 245 248 248 244 240 239 241 245 247 249 251 251 251 252 258 265 265 262 252 236
221 218 216 215 216 216 216 215 215 216 219 221 220 222 225 227 229 234 239 237 223 216 215 225 226 226 231 241 250 249 247 243 244 247 251 255 258 260 260 261 261 260 258 257 257 257 255 251 245 245 247 250 246 241 238 237 242 246 249 251 253 255 257 261 265 264 258 243 229
223 222 221 220 219 219 218 216 215 216 216 218 218 221 225 226 227 230 234 235 227 224 225 236 242 244 244 244 246 249 251 250 248 247 249 250 252 253 254 256 258 259 259 258 257 256 254 252 246 245 247 250 249 244 239 239 244 248 251 253 257 259 260 260 262 261 255 238 227
224 224 224 223 222 221 220 218 216 215 216 219 219 223 227 231 234 236 238 240 238 236 236 240 243 245 245 243 243 245 248 251 251 250 249 249 249 248 247 247 248 250 251 251 251 251 251 250 246 244 245 247 247 245 242 242 248 252 255 257 262 264 263 259 257 254 248 238 224
225 223 223 223 222 222 221 219 216 216 218 220 220 222 226 231 235 238 241 243 243 241 240 238 241 243 244 243 242 242 243 244 245 246 247 248 248 247 245 243 242 243 244 244 244 245 246 247 246 245 245 245 243 240 240 242 247 252 257 260 264 265 264 260 253 246 239 231 211
225 221 218 218 220 221 221 219 217 217 220 222 221 221 222 227 232 236 239 241 241 241 240 239 241 243 243 243 241 239 238 239 240 242 243 245 247 246 245 242 241 241 242 242 241 241 243 245 247 247 247 246 241 237 235 239 244 251 257 262 264 265 262 257 249 241 233 220 196
223 218 214 212 214 216 218 217 217 219 221 222 221 220 219 222 227 231 234 236 237 238 240 242 244 245 245 245 242 239 237 238 241 243 244 245 245 244 243 240 240 241 243 243 241 238 236 235 238 242 246 246 242 237 233 235 241 248 255 261 263 262 259 255 251 246 236 217 198
221 216 213 210 210 211 212 214 216 219 221 222 221 220 219 219 221 225 229 232 234 236 239 242 244 245 246 245 243 241 239 239 242 244 246 247 247 244 242 239 239 240 242 243 243 242 238 232 226 225 230 236 235 235 234 235 240 246 252 257 259 258 256 255 260 255 242 224 210
217 214 213 211 209 210 212 214 216 218 220 221 220 220 220 219 219 221 224 228 231 233 236 240 242 244 244 244 243 242 240 240 241 243 245 246 246 245 242 239 239 239 240 242 243 243 241 238 231 224 217 215 217 221 227 234 237 241 245 251 254 254 252 253 263 262 252 235 221
214 214 214 211 210 212 214 215 215 217 218 219 219 220 221 220 219 219 221 225 227 231 234 236 240 242 243 243 241 240 239 239 239 239 240 243 244 244 243 242 239 238 239 241 242 243 242 241 238 231 222 207 204 207 213 222 228 234 239 244 246 246 244 243 255 261 259 249 233
216 214 212 210 212 215 216 215 215 217 218 217 217 218 218 219 219 220 220 222 224 226 230 233 235 238 240 241 239 238 238 238 238 238 238 239 241 242 242 241 240 240 240 241 242 242 242 242 242 239 232 215 204 201 205 212 219 226 232 236 237 236 233 235 249 258 261 258 244
217 214 211 211 215 218 218 216 217 218 218 216 215 215 216 217 219 220 221 221 222 224 227 230 230 232 234 236 237 238 238 237 237 237 237 239 241 241 242 241 242 242 243 243 243 243 242 242 242 243 240 227 210 199 200 207 213 219 224 228 227 224 225 231 242 250 255 257 250
216 213 213 214 218 220 220 219 220 220 219 216 214 214 215 217 219 221 221 222 223 223 224 224 227 229 231 234 236 237 239 238 236 237 237 239 241 241 241 239 239 241 243 245 245 244 243 242 242 244 244 239 222 206 199 204 209 214 218 220 219 220 223 228 236 244 249 252 251
214 213 215 218 222 223 223 222 221 220 219 217 216 216 217 220 221 222 222 221 222 222 223 224 227 230 232 233 234 237 238 239 237 236 237 240 242 243 242 239 238 240 244 246 246 246 245 244 243 244 244 245 234 219 203 203 206 210 212 212 212 215 219 225 233 241 249 254 256
214 214 217 222 226 227 226 223 221 219 216 216 217 219 221 224 224 224 222 220 219 220 223 226 229 231 232 232 233 236 238 239 238 236 237 238 241 242 243 241 238 240 243 246 247 247 246 245 245 245 245 246 242 231 210 200 203 206 209 208 209 212 216 221 228 238 247 253 256
214 215 218 224 228 230 228 223 218 215 214 215 218 221 224 227 228 227 224 219 218 219 222 225 228 230 232 231 232 235 237 238 238 238 238 239 239 241 243 243 241 241 243 245 246 247 247 246 246 246 246 246 245 236 215 202 201 203 205 205 207 209 209 211 218 229 239 247 251
214 216 220 226 230 230 229 222 216 214 214 218 221 223 225 227 229 228 226 222 220 220 222 224 226 228 230 229 230 233 236 238 237 236 236 236 237 239 241 241 240 240 241 244 245 246 246 246 246 247 247 247 247 238 219 207 205 203 203 203 205 206 207 207 216 228 239 247 251
214 217 222 227 230 230 227 221 216 214 216 221 225 226 226 227 228 227 226 223 222 224 225 224 225 227 229 230 230 232 235 238 238 236 234 232 233 236 239 241 240 240 241 243 245 246 246 247 246 247 247 247 247 238 220 210 209 208 208 208 208 208 211 214 225 236 245 251 253
214 217 223 228 229 228 226 220 217 217 220 225 228 229 229 228 227 226 224 222 224 226 227 226 226 228 230 232 232 233 234 237 238 237 234 230 230 234 238 240 241 241 241 243 245 246 246 247 246 246 247 247 246 234 217 209 211 212 214 214 213 213 214 217 226 237 246 253 254
214 217 222 228 229 228 224 220 218 220 224 228 230 230 230 229 228 225 219 215 221 225 227 227 226 227 229 229 231 232 232 233 235 236 236 232 230 232 236 240 240 240 240 242 244 245 246 246 246 246 246 246 237 217 204 206 212 215 216 216 216 214 213 214 223 234 244 253 255
215 216 220 226 229 229 225 221 221 224 228 230 231 231 230 228 227 222 215 211 217 223 227 228 227 228 227 227 230 232 233 231 231 233 235 234 231 231 234 240 240 239 238 239 242 244 245 245 245 245 245 243 227 203 196 204 211 215 218 218 216 213 211 211 219 232 246 254 259
216 215 218 224 228 229 227 224 225 227 230 232 233 232 229 227 225 220 214 211 215 221 225 228 228 228 227 226 230 234 235 233 231 231 233 234 233 232 233 237 239 238 236 236 239 241 243 244 244 245 245 243 225 200 192 199 208 215 219 220 215 213 213 213 219 233 248 257 262
217 215 217 222 226 228 228 228 229 230 231 232 233 232 229 225 225 221 216 213 216 219 224 228 229 229 227 226 231 236 238 236 232 231 232 234 235 235 235 237 238 237 235 235 237 240 241 243 244 245 245 243 221 199 192 195 205 215 221 221 215 214 217 219 222 232 246 257 262
217 215 218 223 226 228 229 231 232 232 232 232 232 231 229 224 223 220 217 215 217 219 223 228 230 228 227 226 231 236 239 241 236 233 232 233 236 237 237 237 236 235 234 233 236 239 241 242 244 244 243 240 218 198 192 196 208 217 222 223 217 215 217 221 225 232 242 251 259